Date String (YYYY-MM-DD hh:mm:ss) UTC,Instrument flags,Ambient pressure (hPa),Sample flow (lpm),Bypass flow (lpm),Sample temperature (°C),Ambient temperature (°C),ASC tube jacket temperature (°C),LED temperature (°C),Box temperature (°C),Sample RH (%),Span deviation,Mass concentration (μg/m³),Mass concentration (μg/m³),Mass concentration (μg/m³)
DateTimeUTC,F1_M11,P_M11,Q1_M11,Q2_M11,T1_M11,T2_M11,T3_M11,T4_M11,T5_M11,U1_M11,ZSPAN_M11,X0_M11,X2_M11,X1_M11
2021-09-14 02:00:00,,0826.5,5.02,0.00,29.3,28.0,00.0,38.3,31.1,19.6,0000.0,0012.07,0003.59,0002.35
2021-09-14 02:01:00,,0826.5,4.99,0.00,29.3,28.2,00.0,38.3,31.2,20.8,0000.0,0012.03,0003.68,0002.40
2021-09-14 02:02:00,,0826.5,5.01,0.00,29.3,28.3,00.0,38.3,31.2,20.9,0000.0,0011.61,0003.77,0002.46
2021-09-14 02:03:00,,0826.5,5.01,0.00,29.4,28.5,00.0,38.3,31.3,20.8,0000.0,0011.65,0003.89,0002.52
2021-09-14 02:04:00,,0826.5,5.00,0.00,29.4,28.6,00.0,38.4,31.3,21.4,0000.0,0013.84,0003.99,0002.59
2021-09-14 02:05:00,,0826.5,4.99,0.00,29.5,28.7,00.0,38.4,31.3,22.1,0000.0,0016.13,0004.14,0002.69
2021-09-14 02:06:00,,0826.5,5.01,0.00,29.5,28.8,00.0,38.4,31.4,21.7,0000.0,0017.04,0004.29,0002.77
2021-09-14 02:07:00,,0826.5,4.99,0.00,29.6,28.8,00.0,38.5,31.4,20.3,0000.0,0017.37,0004.32,0002.81
2021-09-14 02:08:00,,0826.5,5.00,0.00,29.6,28.5,00.0,38.5,31.4,20.5,0000.0,0017.07,0004.38,0002.83
2021-09-14 02:09:00,,0826.5,5.01,0.00,29.5,26.5,00.0,38.5,30.9,21.2,0000.0,0017.34,0004.46,0002.88
2021-09-14 02:10:00,,0826.5,4.99,0.00,29.3,25.4,00.0,38.4,30.6,21.7,0000.0,0018.84,0004.52,0002.93
2021-09-14 02:11:00,,0826.5,5.00,0.00,29.2,25.7,00.0,38.4,30.6,22.7,0000.0,0019.77,0004.62,0003.00
2021-09-14 02:12:00,,0826.5,5.01,0.00,29.2,26.2,00.0,38.4,30.7,23.5,0000.0,0020.32,0004.67,0003.04
2021-09-14 02:13:00,,0826.5,4.98,0.00,29.2,26.7,00.0,38.3,30.8,23.6,0000.0,0021.43,0004.72,0003.10
2021-09-14 02:14:00,,0826.5,5.01,0.00,29.2,27.1,00.0,38.3,30.9,23.8,0000.0,0021.14,0004.76,0003.13
2021-09-14 02:15:00,,0826.5,5.00,0.00,29.2,27.4,00.0,38.3,31.0,23.8,0000.0,0020.13,0004.75,0003.16
2021-09-14 02:16:00,,0826.5,5.01,0.00,29.2,27.7,00.0,38.3,31.0,24.0,0000.0,0019.64,0004.78,0003.18
2021-09-14 02:17:00,,0826.5,5.00,0.00,29.3,28.0,00.0,38.3,31.1,24.0,0000.0,0021.25,0004.79,0003.19
2021-09-14 02:18:00,,0826.5,5.00,0.00,29.3,28.1,00.0,38.3,31.2,24.1,0000.0,0021.41,0004.87,0003.23
2021-09-14 02:19:00,,0826.5,5.00,0.00,29.4,28.3,00.0,38.3,31.2,24.1,0000.0,0021.60,0004.88,0003.27
2021-09-14 02:20:00,,0826.5,4.99,0.00,29.4,28.4,00.0,38.4,31.3,24.1,0000.0,0022.62,0004.98,0003.33
2021-09-14 02:21:00,,0826.6,5.01,0.00,29.4,28.6,00.0,38.4,31.3,24.2,0000.0,0021.75,0005.10,0003.38
2021-09-14 02:22:00,,0826.6,5.00,0.00,29.5,28.7,00.0,38.4,31.4,24.3,0000.0,0021.12,0005.11,0003.41
2021-09-14 02:23:00,,0826.6,4.99,0.00,29.5,28.8,00.0,38.4,31.4,23.8,0000.0,0020.45,0005.18,0003.45
2021-09-14 02:24:00,,0826.7,5.01,0.00,29.6,28.8,00.0,38.5,31.5,23.7,0000.0,0019.07,0005.18,0003.49
2021-09-14 02:25:00,,0826.7,5.00,0.00,29.6,28.9,00.0,38.5,31.5,24.1,0000.0,0019.39,0005.19,0003.52
2021-09-14 02:26:00,,0826.7,5.02,0.00,29.7,28.7,00.0,38.5,31.5,24.2,0000.0,0020.83,0005.26,0003.53
2021-09-14 02:27:00,,0826.7,4.99,0.00,29.6,26.9,00.0,38.5,31.1,24.4,0000.0,0020.37,0005.24,0003.56
2021-09-14 02:28:00,,0826.9,5.00,0.00,29.4,25.6,00.0,38.5,30.7,24.7,0000.0,0018.93,0005.26,0003.58
2021-09-14 02:29:00,,0826.8,5.02,0.00,29.3,25.7,00.0,38.5,30.7,24.9,0000.0,0019.27,0005.26,0003.61
2021-09-14 02:30:00,,0826.7,4.99,0.00,29.2,26.1,00.0,38.4,30.7,24.9,0000.0,0020.17,0005.28,0003.64
2021-09-14 02:31:00,,0826.8,5.00,0.00,29.2,26.6,00.0,38.4,30.8,24.8,0000.0,0019.38,0005.34,0003.67
2021-09-14 02:32:00,,0826.8,5.00,0.00,29.2,27.0,00.0,38.4,30.9,24.5,0000.0,0019.55,0005.46,0003.71
2021-09-14 02:33:00,,0826.9,5.00,0.00,29.2,27.4,00.0,38.4,31.0,24.2,0000.0,0019.40,0005.50,0003.75
2021-09-14 02:34:00,,0827.0,4.99,0.00,29.3,27.7,00.0,38.3,31.0,24.0,0000.0,0019.97,0005.57,0003.78
2021-09-14 02:35:00,,0826.9,4.99,0.00,29.3,27.9,00.0,38.3,31.1,23.8,0000.0,0020.37,0005.61,0003.81
2021-09-14 02:36:00,,0826.9,5.00,0.00,29.3,28.1,00.0,38.4,31.2,23.7,0000.0,0019.26,0005.67,0003.86
2021-09-14 02:37:00,,0826.8,5.00,0.00,29.4,28.3,00.0,38.4,31.2,23.5,0000.0,0016.97,0005.64,0003.91
2021-09-14 02:38:00,,0826.9,5.01,0.00,29.4,28.4,00.0,38.4,31.3,23.3,0000.0,0016.35,0005.67,0003.97
2021-09-14 02:39:00,,0826.9,5.00,0.00,29.5,28.6,00.0,38.4,31.3,23.2,0000.0,0018.08,0005.69,0004.02
2021-09-14 02:40:00,,0827.0,4.99,0.00,29.5,28.7,00.0,38.4,31.4,23.1,0000.0,0018.24,0005.75,0004.08
2021-09-14 02:41:00,,0827.3,5.01,0.00,29.6,28.8,00.0,38.5,31.5,22.8,0000.0,0016.68,0005.78,0004.12
2021-09-14 02:42:00,,0827.1,4.99,0.00,29.6,28.8,00.0,38.5,31.5,22.4,0000.0,0016.75,0005.74,0004.16
2021-09-14 02:43:00,,0827.4,4.99,0.00,29.6,28.9,00.0,38.5,31.6,22.7,0000.0,0016.96,0005.66,0004.20
2021-09-14 02:44:00,,0827.2,4.99,0.00,29.7,28.9,00.0,38.5,31.6,22.3,0000.0,0018.39,0005.72,0004.25
2021-09-14 02:45:00,,0827.3,5.01,0.00,29.7,28.9,00.0,38.6,31.6,22.2,0000.0,0018.38,0005.70,0004.29
2021-09-14 02:46:00,,0827.4,4.99,0.00,29.7,27.3,00.0,38.6,31.2,22.2,0000.0,0018.42,0005.73,0004.32
2021-09-14 02:47:00,,0827.2,5.00,0.00,29.5,26.4,00.0,38.6,30.9,22.4,0000.0,0019.06,0005.74,0004.33
2021-09-14 02:48:00,,0827.1,4.99,0.00,29.4,26.6,00.0,38.6,30.9,22.5,0000.0,0020.27,0005.80,0004.35
2021-09-14 02:49:00,,0827.1,5.00,0.00,29.4,27.0,00.0,38.5,31.0,22.6,0000.0,0020.99,0005.80,0004.36
2021-09-14 02:50:00,,0827.2,5.01,0.00,29.4,27.3,00.0,38.5,31.1,22.7,0000.0,0019.55,0005.80,0004.37
2021-09-14 02:51:00,,0827.2,5.00,0.00,29.4,27.7,00.0,38.5,31.1,22.7,0000.0,0019.40,0005.81,0004.39
2021-09-14 02:52:00,,0827.2,5.01,0.00,29.4,27.9,00.0,38.5,31.2,22.2,0000.0,0020.39,0005.86,0004.40
2021-09-14 02:53:00,,0827.3,4.99,0.00,29.5,28.1,00.0,38.5,31.3,22.1,0000.0,0020.30,0005.86,0004.40
2021-09-14 02:54:00,,0827.3,5.01,0.00,29.5,28.3,00.0,38.5,31.3,21.9,0000.0,0019.96,0005.83,0004.39
2021-09-14 02:55:00,,0827.4,4.99,0.00,29.5,28.5,00.0,38.5,31.4,21.8,0000.0,0018.95,0005.79,0004.39
2021-09-14 02:56:00,,0827.4,5.00,0.00,29.6,28.6,00.0,38.5,31.4,21.6,0000.0,0018.81,0005.75,0004.38
2021-09-14 02:57:00,,0827.4,5.00,0.00,29.6,28.7,00.0,38.6,31.5,21.2,0000.0,0018.87,0005.71,0004.36
2021-09-14 02:58:00,,0827.4,5.01,0.00,29.7,28.7,00.0,38.6,31.5,20.9,0000.0,0018.08,0005.67,0004.35
2021-09-14 02:59:00,,0827.4,4.99,0.00,29.7,28.8,00.0,38.6,31.6,21.0,0000.0,0017.16,0005.60,0004.34
